Weather Roundup
Issued by NWS Springfield, MO

Home | Current Version | Previous Version | Text Only | Print | Product List | Glossary On
Versions: 1 2 3 4 5 6 7 8 9 10 11 12 13 14 15 16 17 18 19 20 21 22 23 24 25 26 27 28 29 30 31 32 33 34 35 36 37 38 39 40 41 42 43 44 45 46 47 48 49 50
000
NZUS99 KSGF 191707
HRRSGF

HOURLY WEATHER
NATIONAL WEATHER SERVICE SPRINGFIELD MO
1200 PM CDT SAT AUG 19 2017

......SGF CWA......

CITY           SKY/WX    TMP DP  RH WIND       PRES   REMARKS
SPRINGFIELD    SUNNY     86  75  69 W12       30.01R HX  95
JOPLIN         MOSUNNY   87  79  76 SW8       30.00F HX 101
WEST PLAINS    SUNNY     89  71  55 W9        30.02F HX  95
ROLLA          SUNNY     84  73  69 VRB3      30.01S HX  90
OSAGE BEACH    SUNNY     84  72  67 CALM      29.99F
BRANSON        MOSUNNY   84  73  70 NW9       30.04S HX  91

......SURROUNDING SGF CWA......

CITY           SKY/WX    TMP DP  RH WIND       PRES   REMARKS
CHANUTE        SUNNY     88  76  67 CALM      29.98S HX  99
PARSONS        SUNNY     89  77  67 S6        29.98F HX 101
COFFEYVILLE    SUNNY     88  78  72 SE6       29.96F HX 101
EMPORIA        SUNNY     85  71  63 VRB7      29.98S HX  90
GROVE OK       SUNNY     90  75  62 SW3       30.01S HX 100
ROGERS AR      SUNNY     86  75  69 W8        30.04F HX  95
SILOAM SPRINGS SUNNY     88  73  62 W6        30.02F HX  96
HARRISON AR    SUNNY     88  75  65 VRB7      30.04R HX  97
NEAR YELLVILLE SUNNY     90  73  58 NE6       29.98S HX  98

......KANSAS AND MISSOURI......

CITY           SKY/WX    TMP DP  RH WIND       PRES   REMARKS
KANSAS CTY INT SUNNY     86  70  58 CALM      29.99S HX  90
DOWNTOWN KC    SUNNY     88  68  51 VRB3      29.97S HX  91
COLUMBIA       SUNNY     85  70  60 CALM      29.98S
SEDALIA        SUNNY     87  74  64 CALM      29.99F HX  95
ST JOSEPH      SUNNY     84  68  58 CALM      29.98S
ST LOUIS       MOSUNNY   86  68  54 SW5       29.97S
SPIRIT OF STL  MOSUNNY   84  71  65 CALM      29.96S
KIRKSVILLE     SUNNY     87  66  49 VRB6      29.97S
WICHITA        MOSUNNY   91  74  57 SE7       29.96F HX 100
TOPEKA         SUNNY     86  71  60 SE5       29.97F HX  91
OLATHE         SUNNY     85  69  58 CALM      29.99S

......TENNESSEE......

CITY           SKY/WX    TMP DP  RH WIND       PRES   REMARKS
MEMPHIS        PTSUNNY   85  74  69 NW6       30.00S HX  92
NASHVILLE      PTSUNNY   86  67  52 CALM      30.01F

......ARKANSAS.......

CITY           SKY/WX    TMP DP  RH WIND       PRES   REMARKS
FAYETTEVILLE   SUNNY     86  76  71 W8        30.03S HX  96
FT SMITH       SUNNY     90  75  61 CALM      29.99F HX 100
LITTLE ROCK    MOSUNNY   88  77  69 NW9       29.99S HX 100

......OKLAHOMA.......

CITY           SKY/WX    TMP DP  RH WIND       PRES   REMARKS
TULSA          MOSUNNY   91  74  57 SW6       29.95F HX 100
PONCA CITY     SUNNY     89  73  59 VRB3      29.96F HX  97
MCALESTER      SUNNY     91  76  61 VRB6      30.00F HX 103
OKLAHOMA CITY  MOSUNNY   90  72  55 SW9       30.00F HX  97

......IOWA............

CITY           SKY/WX    TMP DP  RH WIND       PRES   REMARKS
DES MOINES     PTSUNNY   77  64  64 NE3       29.96S
QUAD CITIES    SUNNY     78  60  53 SE6       29.98S

......ILLINOIS........

CITY           SKY/WX    TMP DP  RH WIND       PRES   REMARKS
QUINCY         SUNNY     81  67  62 CALM      29.95F
CHICAGO        MOSUNNY   80  56  43 VRB6      29.96F



USA.gov is the U.S. government's official web portal to all federal, state and local government web resources and services.